Location: Complexul Astronomic Baia Mare
(47.6577°N, 23.5639°E)
Time: 06:44:14
(UTC+03:00)

ISS - Pass Details

Date: 14 May 2017
Orbit: 402 x 408 km, 51.6° (Epoch: 29 May)

Event Time Altitude Azimuth Distance (km) Brightness Sun altitude
Exits shadow 03:38:56 51° 226° (SW) 515 -3.8 -17.0°
Maximum altitude 03:39:38 77° 153° (SSE) 421 -3.9 -16.9°
Drops below altitude 10° 03:42:55 10° 68° (ENE) 1,465 -0.1 -16.6°
Sets 03:45:00 0° 67° (ENE) 2,325 1.1 -16.4°
